STARLINK-35502, 66435

Orbit data source: Space-Track

STARLINK-35502, 66435 is a payload satellite owned by SpaceX/Seattle (US) in LEO that was launched on Tue, 11 Nov 2025 UTC via an FALCON 9 launch vehicle from the Air Force Eastern Test Range (AFETR). Payload-class satellites include a variety of spacecraft equipped with specific instruments for various scientific and technological missions. These include communications satellites like Starlink; space stations such as the ISS; scientific satellites like the Hubble; Earth observation satellites from companies like Planet Labs, Umbra, and HawkEye 360; GPS; miniature CubeSats for education and research; and military/defense satellites.

Loading next visibility...
Identifier
66435, 2025-259P
Orbit
LEO
Country
Flag of USUS
Related business
Manufacturer
SpaceX/Seattle
Mission
Operational Commercial Communications
Bus & Motor
STARLINK V2MO, Unknown motor
Mass
575 kg wet, ~530 kg dry
Launch date (UTC)
2025-11-11 (7 months ago)
Launch vehicle
FALCON 9
Launch site
Air Force Eastern Test Range (AFETR)
Object type
Payload
Rocket body
Debris
Shape & HBR
Box + 2 Pan, 17.7 m
Radar Cross Section
36.964 m², Large (>1 m²)

Expand to show TLE details & history
Last TLE update: 14 hours ago

TLE from 14 hours ago
0 STARLINK-35502
1 66435U 25259P   26150.08273044  .00023515  00000-0  86090-3 0  9991
2 66435  42.9992 174.3045 0001521 281.1899  78.8781 15.27595832 31945
Epoch: 2026-05-30T01:59Z
TLE epoch observation values (Epoch: 2026-05-30T01:59:07.910Z)
Latitude
-0.00004°
Longitude
-103.08236°
Altitude
482.576 km
Speed
7.626 km/s
True Right ascension
11h 37m 13s
True Declination
0° 00' 00"
Sunlit
Object was in daylight at epoch
Visualization orbit readout
Latitude
Unknown
Longitude
Unknown
Altitude
Unknown
Speed
Unknown
Apparent Right ascension
Unknown
Apparent Declination
Unknown
Sunlit
N/A
Visualization observer readout
Local Sidereal Time
02:00:23
Azimuth
Unknown
Elevation
Unknown
Doppler factor
Unknown
Orbital elements
Apogee altitude
485.991 km
Perigee altitude
483.903 km
Semi-major axis
6,863.084 km
Eccentricity
0.00015
Inclination
42.9992°
RAAN
174.3045°
Arg. of periapsis
281.1899°
True anomaly
78.8952°
Mean anomaly
78.8781°
Eccentric anomaly
78.88665°
Mean motion
3.81737 °/min
Orbital period
94.31 mins
BSTAR
0.0008609
Loading maneuver chart data...
Computing Atmospheric mass density...
Loading historical data...
Loading historical data...
Loading historical data...
Loading historical data...
Loading historical data...
Loading historical data...
Loading historical data...

Documentation

Showing up to 5 results
|